owner,sensor,date,latitude,longitude,air_temperature,qcFlag 
ADCP,ioos:station:wmo:42365:1,2013-06-01T00:30:00Z,28.2000,-89.1200,26.1,11111222 
ADCP,ioos:station:wmo:42365:1,2013-06-01T01:30:00Z,28.2000,-89.1200,25.9,11111222 
ADCP,ioos:station:wmo:42365:1,2013-06-01T02:30:00Z,28.2000,-89.1200,25.8,11111222 
ADCP,ioos:station:wmo:42365:1,2013-06-01T03:30:00Z,28.2000,-89.1200,25.6,11111222 
ADCP,ioos:station:wmo:42365:1,2013-06-01T04:30:00Z,28.2000,-89.1200,25.7,11111222 
ADCP,ioos:station:wmo:42365:1,2013-06-01T05:30:00Z,28.2000,-89.1200,25.7,11111222 
ADCP,ioos:station:wmo:42365:1,2013-06-01T06:30:00Z,28.2000,-89.1200,25.8,11111222 
ADCP,ioos:station:wmo:42365:1,2013-06-01T07:30:00Z,28.2000,-89.1200,26.1,11111222 
ADCP,ioos:station:wmo:42365:1,2013-06-01T08:30:00Z,28.2000,-89.1200,26.2,11111222 
ADCP,ioos:station:wmo:42365:1,2013-06-01T09:30:00Z,28.2000,-89.1200,26.2,11111222 
ADCP,ioos:station:wmo:42365:1,2013-06-01T10:30:00Z,28.2000,-89.1200,26.1,11111222 
ADCP,ioos:station:wmo:42365:1,2013-06-01T11:30:00Z,28.2000,-89.1200,26.0,11111222 
ADCP,ioos:station:wmo:42365:1,2013-06-01T13:30:00Z,28.2000,-89.1200,26.3,11111222 
ADCP,ioos:station:wmo:42365:1,2013-06-01T14:30:00Z,28.2000,-89.1200,26.3,11111222 
ADCP,ioos:station:wmo:42365:1,2013-06-01T15:30:00Z,28.2000,-89.1200,26.4,11111222 
ADCP,ioos:station:wmo:42365:1,2013-06-01T16:30:00Z,28.2000,-89.1200,26.6,11111222 
ADCP,ioos:station:wmo:42365:1,2013-06-01T17:30:00Z,28.2000,-89.1200,25.7,11111222 
ADCP,ioos:station:wmo:42365:1,2013-06-01T18:30:00Z,28.2000,-89.1200,26.5,11111222 
ADCP,ioos:station:wmo:42365:1,2013-06-01T19:30:00Z,28.2000,-89.1200,26.1,11111222 
ADCP,ioos:station:wmo:42365:1,2013-06-01T20:30:00Z,28.2000,-89.1200,26.3,11111222 
ADCP,ioos:station:wmo:42365:1,2013-06-01T21:30:00Z,28.2000,-89.1200,26.4,11111222 
ADCP,ioos:station:wmo:42365:1,2013-06-01T22:30:00Z,28.2000,-89.1200,26.1,11111222 
ADCP,ioos:station:wmo:42365:1,2013-06-01T23:30:00Z,28.2000,-89.1200,26.3,11111222 
ADCP,ioos:station:wmo:42365:1,2013-06-02T00:30:00Z,28.2000,-89.1200,26.3,11111222 
ADCP,ioos:station:wmo:42365:1,2013-06-02T01:30:00Z,28.2000,-89.1200,26.2,11111222 
ADCP,ioos:station:wmo:42365:1,2013-06-02T02:30:00Z,28.2000,-89.1200,26.3,11111222 
ADCP,ioos:station:wmo:42365:1,2013-06-02T03:30:00Z,28.2000,-89.1200,26.3,11111222 
ADCP,ioos:station:wmo:42365:1,2013-06-02T04:30:00Z,28.2000,-89.1200,26.2,11111222 
ADCP,ioos:station:wmo:42365:1,2013-06-02T05:30:00Z,28.2000,-89.1200,26.2,11111222 
ADCP,ioos:station:wmo:42365:1,2013-06-02T06:30:00Z,28.2000,-89.1200,26.3,11111222 
ADCP,ioos:station:wmo:42365:1,2013-06-02T07:30:00Z,28.2000,-89.1200,26.3,11111222 
ADCP,ioos:station:wmo:42365:1,2013-06-02T08:30:00Z,28.2000,-89.1200,25.7,11111222 
ADCP,ioos:station:wmo:42365:1,2013-06-02T09:30:00Z,28.2000,-89.1200,25.6,11111222 
ADCP,ioos:station:wmo:42365:1,2013-06-02T11:30:00Z,28.2000,-89.1200,26.2,11111222 
ADCP,ioos:station:wmo:42365:1,2013-06-02T12:30:00Z,28.2000,-89.1200,26.7,11111222 
ADCP,ioos:station:wmo:42365:1,2013-06-02T13:30:00Z,28.2000,-89.1200,26.8,11111222 
ADCP,ioos:station:wmo:42365:1,2013-06-02T14:30:00Z,28.2000,-89.1200,26.9,11111222 
ADCP,ioos:station:wmo:42365:1,2013-06-02T15:30:00Z,28.2000,-89.1200,26.5,11111222 
ADCP,ioos:station:wmo:42365:1,2013-06-02T16:30:00Z,28.2000,-89.1200,26.5,11111222 
ADCP,ioos:station:wmo:42365:1,2013-06-02T17:30:00Z,28.2000,-89.1200,28.8,11111222 
ADCP,ioos:station:wmo:42365:1,2013-06-02T18:30:00Z,28.2000,-89.1200,23.7,11111222 
ADCP,ioos:station:wmo:42365:1,2013-06-02T19:30:00Z,28.2000,-89.1200,25.7,11111222 
ADCP,ioos:station:wmo:42365:1,2013-06-02T20:30:00Z,28.2000,-89.1200,25.7,11111222 
ADCP,ioos:station:wmo:42365:1,2013-06-02T21:30:00Z,28.2000,-89.1200,26.0,11111222 
ADCP,ioos:station:wmo:42365:1,2013-06-02T22:30:00Z,28.2000,-89.1200,26.2,11111222 
ADCP,ioos:station:wmo:42365:1,2013-06-02T23:30:00Z,28.2000,-89.1200,26.2,11111222 
ADCP,ioos:station:wmo:42365:1,2013-06-03T00:30:00Z,28.2000,-89.1200,26.3,11111222 
ADCP,ioos:station:wmo:42365:1,2013-06-03T01:30:00Z,28.2000,-89.1200,26.4,11111222 
ADCP,ioos:station:wmo:42365:1,2013-06-03T02:30:00Z,28.2000,-89.1200,26.4,11111222 
ADCP,ioos:station:wmo:42365:1,2013-06-03T04:30:00Z,28.2000,-89.1200,26.3,11111222 
ADCP,ioos:station:wmo:42365:1,2013-06-03T05:30:00Z,28.2000,-89.1200,26.2,11111222 
ADCP,ioos:station:wmo:42365:1,2013-06-03T07:30:00Z,28.2000,-89.1200,26.2,11111222 
ADCP,ioos:station:wmo:42365:1,2013-06-03T08:30:00Z,28.2000,-89.1200,26.2,11111222 
ADCP,ioos:station:wmo:42365:1,2013-06-03T09:30:00Z,28.2000,-89.1200,26.1,11111222 
ADCP,ioos:station:wmo:42365:1,2013-06-03T10:30:00Z,28.2000,-89.1200,26.0,11111222 
ADCP,ioos:station:wmo:42365:1,2013-06-03T11:30:00Z,28.2000,-89.1200,26.1,11111222 
ADCP,ioos:station:wmo:42365:1,2013-06-03T12:30:00Z,28.2000,-89.1200,26.4,11111222 
ADCP,ioos:station:wmo:42365:1,2013-06-03T13:30:00Z,28.2000,-89.1200,27.6,11111222 
ADCP,ioos:station:wmo:42365:1,2013-06-03T14:30:00Z,28.2000,-89.1200,26.9,11111222 
ADCP,ioos:station:wmo:42365:1,2013-06-03T15:30:00Z,28.2000,-89.1200,26.7,11111222 
ADCP,ioos:station:wmo:42365:1,2013-06-03T16:30:00Z,28.2000,-89.1200,27.8,11111222 
ADCP,ioos:station:wmo:42365:1,2013-06-03T17:30:00Z,28.2000,-89.1200,29.2,11111222 
ADCP,ioos:station:wmo:42365:1,2013-06-03T18:30:00Z,28.2000,-89.1200,27.3,11111222 
ADCP,ioos:station:wmo:42365:1,2013-06-03T19:30:00Z,28.2000,-89.1200,28.5,11111222 
ADCP,ioos:station:wmo:42365:1,2013-06-03T20:30:00Z,28.2000,-89.1200,28.7,11111222 
ADCP,ioos:station:wmo:42365:1,2013-06-03T21:30:00Z,28.2000,-89.1200,26.8,11111222 
ADCP,ioos:station:wmo:42365:1,2013-06-03T22:30:00Z,28.2000,-89.1200,26.7,11111222 
ADCP,ioos:station:wmo:42365:1,2013-06-03T23:30:00Z,28.2000,-89.1200,26.7,11111222 
ADCP,ioos:station:wmo:42365:1,2013-06-04T00:30:00Z,28.2000,-89.1200,26.6,11111222 
ADCP,ioos:station:wmo:42365:1,2013-06-04T01:30:00Z,28.2000,-89.1200,26.6,11111222 
ADCP,ioos:station:wmo:42365:1,2013-06-04T02:30:00Z,28.2000,-89.1200,26.5,11111222 
ADCP,ioos:station:wmo:42365:1,2013-06-04T03:30:00Z,28.2000,-89.1200,26.5,11111222 
ADCP,ioos:station:wmo:42365:1,2013-06-04T04:30:00Z,28.2000,-89.1200,26.5,11111222 
ADCP,ioos:station:wmo:42365:1,2013-06-04T05:30:00Z,28.2000,-89.1200,26.3,11111222 
ADCP,ioos:station:wmo:42365:1,2013-06-04T06:30:00Z,28.2000,-89.1200,26.2,11111222 
ADCP,ioos:station:wmo:42365:1,2013-06-04T07:30:00Z,28.2000,-89.1200,26.1,11111222 
ADCP,ioos:station:wmo:42365:1,2013-06-04T08:30:00Z,28.2000,-89.1200,26.1,11111222 
ADCP,ioos:station:wmo:42365:1,2013-06-04T09:30:00Z,28.2000,-89.1200,26.4,11111222 
ADCP,ioos:station:wmo:42365:1,2013-06-04T10:30:00Z,28.2000,-89.1200,26.3,11111222 
ADCP,ioos:station:wmo:42365:1,2013-06-04T11:30:00Z,28.2000,-89.1200,25.6,11111222 
ADCP,ioos:station:wmo:42365:1,2013-06-04T12:30:00Z,28.2000,-89.1200,25.9,11111222 
ADCP,ioos:station:wmo:42365:1,2013-06-04T13:30:00Z,28.2000,-89.1200,27.5,11111222 
ADCP,ioos:station:wmo:42365:1,2013-06-04T14:30:00Z,28.2000,-89.1200,26.6,11111222 
ADCP,ioos:station:wmo:42365:1,2013-06-04T15:30:00Z,28.2000,-89.1200,26.7,11111222 
ADCP,ioos:station:wmo:42365:1,2013-06-04T16:30:00Z,28.2000,-89.1200,26.6,11111222 
ADCP,ioos:station:wmo:42365:1,2013-06-04T17:30:00Z,28.2000,-89.1200,27.0,11111222 
ADCP,ioos:station:wmo:42365:1,2013-06-04T18:30:00Z,28.2000,-89.1200,27.1,11111222 
ADCP,ioos:station:wmo:42365:1,2013-06-04T19:30:00Z,28.2000,-89.1200,26.5,11111222 
ADCP,ioos:station:wmo:42365:1,2013-06-04T20:30:00Z,28.2000,-89.1200,26.4,11111222 
ADCP,ioos:station:wmo:42365:1,2013-06-04T21:30:00Z,28.2000,-89.1200,26.5,11111222 
ADCP,ioos:station:wmo:42365:1,2013-06-04T22:30:00Z,28.2000,-89.1200,26.6,11111222 
ADCP,ioos:station:wmo:42365:1,2013-06-04T23:30:00Z,28.2000,-89.1200,26.4,11111222 
ADCP,ioos:station:wmo:42365:1,2013-06-05T00:30:00Z,28.2000,-89.1200,26.3,11111222 
ADCP,ioos:station:wmo:42365:1,2013-06-05T01:30:00Z,28.2000,-89.1200,26.5,11111222 
ADCP,ioos:station:wmo:42365:1,2013-06-05T02:30:00Z,28.2000,-89.1200,26.1,11111222 
ADCP,ioos:station:wmo:42365:1,2013-06-05T03:30:00Z,28.2000,-89.1200,26.3,11111222 
ADCP,ioos:station:wmo:42365:1,2013-06-05T04:30:00Z,28.2000,-89.1200,26.3,11111222 
ADCP,ioos:station:wmo:42365:1,2013-06-05T07:30:00Z,28.2000,-89.1200,26.2,11111222 
ADCP,ioos:station:wmo:42365:1,2013-06-05T08:30:00Z,28.2000,-89.1200,26.0,11111222 
ADCP,ioos:station:wmo:42365:1,2013-06-05T09:30:00Z,28.2000,-89.1200,26.1,11111222 
ADCP,ioos:station:wmo:42365:1,2013-06-05T10:30:00Z,28.2000,-89.1200,26.0,11111222 
ADCP,ioos:station:wmo:42365:1,2013-06-05T11:30:00Z,28.2000,-89.1200,26.1,11111222 
ADCP,ioos:station:wmo:42365:1,2013-06-05T12:30:00Z,28.2000,-89.1200,26.0,11111222 
ADCP,ioos:station:wmo:42365:1,2013-06-05T13:30:00Z,28.2000,-89.1200,26.3,11111222 
ADCP,ioos:station:wmo:42365:1,2013-06-05T14:30:00Z,28.2000,-89.1200,26.5,11111222 
ADCP,ioos:station:wmo:42365:1,2013-06-05T15:30:00Z,28.2000,-89.1200,26.4,11111222 
ADCP,ioos:station:wmo:42365:1,2013-06-05T17:30:00Z,28.2000,-89.1200,26.4,11111222 
ADCP,ioos:station:wmo:42365:1,2013-06-05T18:30:00Z,28.2000,-89.1200,26.5,11111222 
ADCP,ioos:station:wmo:42365:1,2013-06-05T20:30:00Z,28.2000,-89.1200,26.4,11111222 
ADCP,ioos:station:wmo:42365:1,2013-06-05T21:30:00Z,28.2000,-89.1200,26.1,11111222 
ADCP,ioos:station:wmo:42365:1,2013-06-05T22:30:00Z,28.2000,-89.1200,25.5,11111222 
ADCP,ioos:station:wmo:42365:1,2013-06-05T23:30:00Z,28.2000,-89.1200,25.8,11111222 
ADCP,ioos:station:wmo:42365:1,2013-06-06T00:30:00Z,28.2000,-89.1200,26.0,11111222 
ADCP,ioos:station:wmo:42365:1,2013-06-06T01:30:00Z,28.2000,-89.1200,26.0,11111222 
ADCP,ioos:station:wmo:42365:1,2013-06-06T02:30:00Z,28.2000,-89.1200,25.8,11111222 
ADCP,ioos:station:wmo:42365:1,2013-06-06T03:30:00Z,28.2000,-89.1200,25.9,11111222 
ADCP,ioos:station:wmo:42365:1,2013-06-06T04:30:00Z,28.2000,-89.1200,25.9,11111222 
ADCP,ioos:station:wmo:42365:1,2013-06-06T05:30:00Z,28.2000,-89.1200,25.9,11111222 
ADCP,ioos:station:wmo:42365:1,2013-06-06T06:30:00Z,28.2000,-89.1200,25.8,11111222 
ADCP,ioos:station:wmo:42365:1,2013-06-06T07:30:00Z,28.2000,-89.1200,25.6,11111222 
ADCP,ioos:station:wmo:42365:1,2013-06-06T08:30:00Z,28.2000,-89.1200,25.9,11111222 
ADCP,ioos:station:wmo:42365:1,2013-06-06T09:30:00Z,28.2000,-89.1200,25.7,11111222 
ADCP,ioos:station:wmo:42365:1,2013-06-06T10:30:00Z,28.2000,-89.1200,26.0,11111222 
ADCP,ioos:station:wmo:42365:1,2013-06-06T11:30:00Z,28.2000,-89.1200,25.9,11111222 
ADCP,ioos:station:wmo:42365:1,2013-06-06T12:30:00Z,28.2000,-89.1200,26.8,11111222 
ADCP,ioos:station:wmo:42365:1,2013-06-06T13:30:00Z,28.2000,-89.1200,28.9,11111222 
ADCP,ioos:station:wmo:42365:1,2013-06-06T14:30:00Z,28.2000,-89.1200,27.7,11111222 
ADCP,ioos:station:wmo:42365:1,2013-06-06T15:30:00Z,28.2000,-89.1200,28.2,11111222 
ADCP,ioos:station:wmo:42365:1,2013-06-06T16:30:00Z,28.2000,-89.1200,28.4,11111222 
ADCP,ioos:station:wmo:42365:1,2013-06-06T17:30:00Z,28.2000,-89.1200,28.4,11111222 
ADCP,ioos:station:wmo:42365:1,2013-06-06T18:30:00Z,28.2000,-89.1200,28.4,11111222 
ADCP,ioos:station:wmo:42365:1,2013-06-06T19:30:00Z,28.2000,-89.1200,28.2,11111222 
ADCP,ioos:station:wmo:42365:1,2013-06-06T20:30:00Z,28.2000,-89.1200,28.7,11111222 
ADCP,ioos:station:wmo:42365:1,2013-06-06T21:30:00Z,28.2000,-89.1200,28.9,11111222 
ADCP,ioos:station:wmo:42365:1,2013-06-06T22:30:00Z,28.2000,-89.1200,28.2,11111222 
ADCP,ioos:station:wmo:42365:1,2013-06-06T23:30:00Z,28.2000,-89.1200,28.1,11111222 
ADCP,ioos:station:wmo:42365:1,2013-06-07T00:30:00Z,28.2000,-89.1200,27.4,11111222 
ADCP,ioos:station:wmo:42365:1,2013-06-07T01:30:00Z,28.2000,-89.1200,26.4,11111222 
ADCP,ioos:station:wmo:42365:1,2013-06-07T02:30:00Z,28.2000,-89.1200,26.7,11111222 
ADCP,ioos:station:wmo:42365:1,2013-06-07T03:30:00Z,28.2000,-89.1200,26.8,11111222 
ADCP,ioos:station:wmo:42365:1,2013-06-07T04:30:00Z,28.2000,-89.1200,26.8,11111222 
ADCP,ioos:station:wmo:42365:1,2013-06-07T05:30:00Z,28.2000,-89.1200,26.7,11111222 
ADCP,ioos:station:wmo:42365:1,2013-06-07T06:30:00Z,28.2000,-89.1200,26.2,11111222 
ADCP,ioos:station:wmo:42365:1,2013-06-07T07:30:00Z,28.2000,-89.1200,26.3,11111222 
ADCP,ioos:station:wmo:42365:1,2013-06-07T08:30:00Z,28.2000,-89.1200,26.2,11111222 
ADCP,ioos:station:wmo:42365:1,2013-06-07T09:30:00Z,28.2000,-89.1200,25.9,11111222 
ADCP,ioos:station:wmo:42365:1,2013-06-07T10:30:00Z,28.2000,-89.1200,25.9,11111222 
ADCP,ioos:station:wmo:42365:1,2013-06-07T11:30:00Z,28.2000,-89.1200,26.3,11111222 
ADCP,ioos:station:wmo:42365:1,2013-06-07T12:30:00Z,28.2000,-89.1200,26.5,11111222 
ADCP,ioos:station:wmo:42365:1,2013-06-07T13:30:00Z,28.2000,-89.1200,26.9,11111222 
ADCP,ioos:station:wmo:42365:1,2013-06-07T14:30:00Z,28.2000,-89.1200,27.5,11111222 
ADCP,ioos:station:wmo:42365:1,2013-06-07T15:30:00Z,28.2000,-89.1200,28.4,11111222 
ADCP,ioos:station:wmo:42365:1,2013-06-07T16:30:00Z,28.2000,-89.1200,28.6,11111222 
ADCP,ioos:station:wmo:42365:1,2013-06-07T17:30:00Z,28.2000,-89.1200,28.5,11111222 
ADCP,ioos:station:wmo:42365:1,2013-06-07T18:30:00Z,28.2000,-89.1200,28.7,11111222 
ADCP,ioos:station:wmo:42365:1,2013-06-07T19:30:00Z,28.2000,-89.1200,28.9,11111222 
ADCP,ioos:station:wmo:42365:1,2013-06-07T20:30:00Z,28.2000,-89.1200,28.6,11111222 
ADCP,ioos:station:wmo:42365:1,2013-06-07T21:30:00Z,28.2000,-89.1200,28.6,11111222 
ADCP,ioos:station:wmo:42365:1,2013-06-07T22:30:00Z,28.2000,-89.1200,30.1,11111222 
ADCP,ioos:station:wmo:42365:1,2013-06-07T23:30:00Z,28.2000,-89.1200,28.4,11111222 
ADCP,ioos:station:wmo:42365:1,2013-06-08T00:30:00Z,28.2000,-89.1200,27.1,11111222 
ADCP,ioos:station:wmo:42365:1,2013-06-08T01:30:00Z,28.2000,-89.1200,26.3,11111222 
ADCP,ioos:station:wmo:42365:1,2013-06-08T02:30:00Z,28.2000,-89.1200,26.3,11111222 
ADCP,ioos:station:wmo:42365:1,2013-06-08T03:30:00Z,28.2000,-89.1200,26.4,11111222 
ADCP,ioos:station:wmo:42365:1,2013-06-08T04:30:00Z,28.2000,-89.1200,26.7,11111222 
ADCP,ioos:station:wmo:42365:1,2013-06-08T05:30:00Z,28.2000,-89.1200,26.8,11111222 
ADCP,ioos:station:wmo:42365:1,2013-06-08T06:30:00Z,28.2000,-89.1200,26.8,11111222 
ADCP,ioos:station:wmo:42365:1,2013-06-08T07:30:00Z,28.2000,-89.1200,26.5,11111222 
ADCP,ioos:station:wmo:42365:1,2013-06-08T08:30:00Z,28.2000,-89.1200,26.4,11111222 
ADCP,ioos:station:wmo:42365:1,2013-06-08T09:30:00Z,28.2000,-89.1200,26.2,11111222 
ADCP,ioos:station:wmo:42365:1,2013-06-08T10:30:00Z,28.2000,-89.1200,26.2,11111222 
ADCP,ioos:station:wmo:42365:1,2013-06-08T11:30:00Z,28.2000,-89.1200,26.6,11111222 
ADCP,ioos:station:wmo:42365:1,2013-06-08T12:30:00Z,28.2000,-89.1200,26.7,11111222 
ADCP,ioos:station:wmo:42365:1,2013-06-08T13:30:00Z,28.2000,-89.1200,26.9,11111222 
ADCP,ioos:station:wmo:42365:1,2013-06-08T14:30:00Z,28.2000,-89.1200,26.8,11111222 
ADCP,ioos:station:wmo:42365:1,2013-06-08T15:30:00Z,28.2000,-89.1200,26.9,11111222 
ADCP,ioos:station:wmo:42365:1,2013-06-08T16:30:00Z,28.2000,-89.1200,27.1,11111222 
ADCP,ioos:station:wmo:42365:1,2013-06-08T17:30:00Z,28.2000,-89.1200,27.2,11111222 
ADCP,ioos:station:wmo:42365:1,2013-06-08T18:30:00Z,28.2000,-89.1200,27.0,11111222 
ADCP,ioos:station:wmo:42365:1,2013-06-08T19:30:00Z,28.2000,-89.1200,27.2,11111222 
ADCP,ioos:station:wmo:42365:1,2013-06-08T20:30:00Z,28.2000,-89.1200,27.3,11111222 
ADCP,ioos:station:wmo:42365:1,2013-06-08T21:30:00Z,28.2000,-89.1200,25.5,11111222 
ADCP,ioos:station:wmo:42365:1,2013-06-08T22:30:00Z,28.2000,-89.1200,25.8,11111222 
ADCP,ioos:station:wmo:42365:1,2013-06-08T23:30:00Z,28.2000,-89.1200,25.6,11111222 
ADCP,ioos:station:wmo:42365:1,2013-06-09T00:30:00Z,28.2000,-89.1200,25.2,11111222 
ADCP,ioos:station:wmo:42365:1,2013-06-09T01:30:00Z,28.2000,-89.1200,26.0,11111222 
ADCP,ioos:station:wmo:42365:1,2013-06-09T02:30:00Z,28.2000,-89.1200,26.5,11111222 
ADCP,ioos:station:wmo:42365:1,2013-06-09T03:30:00Z,28.2000,-89.1200,26.7,11111222 
ADCP,ioos:station:wmo:42365:1,2013-06-09T04:30:00Z,28.2000,-89.1200,26.9,11111222 
ADCP,ioos:station:wmo:42365:1,2013-06-09T05:30:00Z,28.2000,-89.1200,26.8,11111222 
ADCP,ioos:station:wmo:42365:1,2013-06-09T07:30:00Z,28.2000,-89.1200,26.8,11111222 
ADCP,ioos:station:wmo:42365:1,2013-06-09T08:30:00Z,28.2000,-89.1200,26.7,11111222 
ADCP,ioos:station:wmo:42365:1,2013-06-09T09:30:00Z,28.2000,-89.1200,26.3,11111222 
ADCP,ioos:station:wmo:42365:1,2013-06-09T10:30:00Z,28.2000,-89.1200,26.8,11111222 
ADCP,ioos:station:wmo:42365:1,2013-06-09T11:30:00Z,28.2000,-89.1200,26.8,11111222 
ADCP,ioos:station:wmo:42365:1,2013-06-09T12:30:00Z,28.2000,-89.1200,25.6,11111222 
ADCP,ioos:station:wmo:42365:1,2013-06-09T13:30:00Z,28.2000,-89.1200,25.7,11111222 
ADCP,ioos:station:wmo:42365:1,2013-06-09T14:30:00Z,28.2000,-89.1200,26.6,11111222 
ADCP,ioos:station:wmo:42365:1,2013-06-09T15:30:00Z,28.2000,-89.1200,26.9,11111222 
ADCP,ioos:station:wmo:42365:1,2013-06-09T17:30:00Z,28.2000,-89.1200,26.6,11111222 
ADCP,ioos:station:wmo:42365:1,2013-06-09T18:30:00Z,28.2000,-89.1200,26.9,11111222 
ADCP,ioos:station:wmo:42365:1,2013-06-09T19:30:00Z,28.2000,-89.1200,27.3,11111222 
ADCP,ioos:station:wmo:42365:1,2013-06-09T20:30:00Z,28.2000,-89.1200,27.1,11111222 
ADCP,ioos:station:wmo:42365:1,2013-06-09T21:30:00Z,28.2000,-89.1200,27.2,11111222 
ADCP,ioos:station:wmo:42365:1,2013-06-09T22:30:00Z,28.2000,-89.1200,27.1,11111222 
ADCP,ioos:station:wmo:42365:1,2013-06-09T23:30:00Z,28.2000,-89.1200,27.0,11111222 
ADCP,ioos:station:wmo:42365:1,2013-06-10T00:30:00Z,28.2000,-89.1200,27.1,11111222 
ADCP,ioos:station:wmo:42365:1,2013-06-10T01:30:00Z,28.2000,-89.1200,27.1,11111222 
ADCP,ioos:station:wmo:42365:1,2013-06-10T02:30:00Z,28.2000,-89.1200,27.1,11111222 
ADCP,ioos:station:wmo:42365:1,2013-06-10T03:30:00Z,28.2000,-89.1200,27.0,11111222 
ADCP,ioos:station:wmo:42365:1,2013-06-10T04:30:00Z,28.2000,-89.1200,26.9,11111222 
ADCP,ioos:station:wmo:42365:1,2013-06-10T05:30:00Z,28.2000,-89.1200,26.8,11111222 
ADCP,ioos:station:wmo:42365:1,2013-06-10T06:30:00Z,28.2000,-89.1200,26.9,11111222 
ADCP,ioos:station:wmo:42365:1,2013-06-10T07:30:00Z,28.2000,-89.1200,26.9,11111222 
ADCP,ioos:station:wmo:42365:1,2013-06-10T08:30:00Z,28.2000,-89.1200,26.7,11111222 
ADCP,ioos:station:wmo:42365:1,2013-06-10T10:30:00Z,28.2000,-89.1200,26.9,11111222 
ADCP,ioos:station:wmo:42365:1,2013-06-10T11:30:00Z,28.2000,-89.1200,26.9,11111222 
ADCP,ioos:station:wmo:42365:1,2013-06-10T12:30:00Z,28.2000,-89.1200,26.8,11111222 
ADCP,ioos:station:wmo:42365:1,2013-06-10T13:30:00Z,28.2000,-89.1200,27.0,11111222 
ADCP,ioos:station:wmo:42365:1,2013-06-10T14:30:00Z,28.2000,-89.1200,27.0,11111222 
ADCP,ioos:station:wmo:42365:1,2013-06-10T15:30:00Z,28.2000,-89.1200,27.2,11111222 
ADCP,ioos:station:wmo:42365:1,2013-06-10T16:30:00Z,28.2000,-89.1200,27.3,11111222 
ADCP,ioos:station:wmo:42365:1,2013-06-10T17:30:00Z,28.2000,-89.1200,27.4,11111222 
ADCP,ioos:station:wmo:42365:1,2013-06-10T18:30:00Z,28.2000,-89.1200,27.4,11111222 
ADCP,ioos:station:wmo:42365:1,2013-06-10T19:30:00Z,28.2000,-89.1200,27.5,11111222 
ADCP,ioos:station:wmo:42365:1,2013-06-10T20:30:00Z,28.2000,-89.1200,27.7,11111222 
ADCP,ioos:station:wmo:42365:1,2013-06-10T21:30:00Z,28.2000,-89.1200,27.6,11111222 
ADCP,ioos:station:wmo:42365:1,2013-06-10T22:30:00Z,28.2000,-89.1200,27.5,11111222 
ADCP,ioos:station:wmo:42365:1,2013-06-10T23:30:00Z,28.2000,-89.1200,27.2,11111222 
ADCP,ioos:station:wmo:42365:1,2013-06-11T00:30:00Z,28.2000,-89.1200,27.2,11111222 
ADCP,ioos:station:wmo:42365:1,2013-06-11T01:30:00Z,28.2000,-89.1200,27.1,11111222 
ADCP,ioos:station:wmo:42365:1,2013-06-11T02:30:00Z,28.2000,-89.1200,27.1,11111222 
ADCP,ioos:station:wmo:42365:1,2013-06-11T03:30:00Z,28.2000,-89.1200,27.1,11111222 
ADCP,ioos:station:wmo:42365:1,2013-06-11T04:30:00Z,28.2000,-89.1200,27.0,11111222 
ADCP,ioos:station:wmo:42365:1,2013-06-11T05:30:00Z,28.2000,-89.1200,26.8,11111222 
ADCP,ioos:station:wmo:42365:1,2013-06-11T06:30:00Z,28.2000,-89.1200,26.7,11111222 
ADCP,ioos:station:wmo:42365:1,2013-06-11T07:30:00Z,28.2000,-89.1200,26.7,11111222 
ADCP,ioos:station:wmo:42365:1,2013-06-11T08:30:00Z,28.2000,-89.1200,26.7,11111222 
ADCP,ioos:station:wmo:42365:1,2013-06-11T09:30:00Z,28.2000,-89.1200,26.7,11111222 
ADCP,ioos:station:wmo:42365:1,2013-06-11T10:30:00Z,28.2000,-89.1200,26.8,11111222 
ADCP,ioos:station:wmo:42365:1,2013-06-11T11:30:00Z,28.2000,-89.1200,26.8,11111222 
ADCP,ioos:station:wmo:42365:1,2013-06-11T12:30:00Z,28.2000,-89.1200,27.0,11111222 
ADCP,ioos:station:wmo:42365:1,2013-06-11T13:30:00Z,28.2000,-89.1200,27.0,11111222 
ADCP,ioos:station:wmo:42365:1,2013-06-11T14:30:00Z,28.2000,-89.1200,29.3,11111222 
ADCP,ioos:station:wmo:42365:1,2013-06-11T15:30:00Z,28.2000,-89.1200,27.4,11111222 
ADCP,ioos:station:wmo:42365:1,2013-06-11T16:30:00Z,28.2000,-89.1200,27.8,11111222 
ADCP,ioos:station:wmo:42365:1,2013-06-11T17:30:00Z,28.2000,-89.1200,28.7,11111222 
ADCP,ioos:station:wmo:42365:1,2013-06-11T18:30:00Z,28.2000,-89.1200,27.8,11111222 
ADCP,ioos:station:wmo:42365:1,2013-06-11T19:30:00Z,28.2000,-89.1200,27.2,11111222 
ADCP,ioos:station:wmo:42365:1,2013-06-11T20:30:00Z,28.2000,-89.1200,28.2,11111222 
ADCP,ioos:station:wmo:42365:1,2013-06-11T21:30:00Z,28.2000,-89.1200,27.3,11111222 
ADCP,ioos:station:wmo:42365:1,2013-06-11T22:30:00Z,28.2000,-89.1200,27.4,11111222 
ADCP,ioos:station:wmo:42365:1,2013-06-18T16:30:00Z,28.2000,-89.1200,28.1,11111222 
ADCP,ioos:station:wmo:42365:1,2013-06-18T17:30:00Z,28.2000,-89.1200,28.3,11111222 
ADCP,ioos:station:wmo:42365:1,2013-06-18T18:30:00Z,28.2000,-89.1200,28.2,11111222 
ADCP,ioos:station:wmo:42365:1,2013-06-18T19:30:00Z,28.2000,-89.1200,28.2,11111222 
ADCP,ioos:station:wmo:42365:1,2013-06-18T20:30:00Z,28.2000,-89.1200,28.5,11111222 
ADCP,ioos:station:wmo:42365:1,2013-06-18T21:30:00Z,28.2000,-89.1200,28.3,11111222 
ADCP,ioos:station:wmo:42365:1,2013-06-18T22:30:00Z,28.2000,-89.1200,28.4,11111222 
ADCP,ioos:station:wmo:42365:1,2013-06-18T23:30:00Z,28.2000,-89.1200,28.4,11111222 
ADCP,ioos:station:wmo:42365:1,2013-06-19T00:30:00Z,28.2000,-89.1200,28.4,11111222 
ADCP,ioos:station:wmo:42365:1,2013-06-19T01:30:00Z,28.2000,-89.1200,28.3,11111222 
ADCP,ioos:station:wmo:42365:1,2013-06-19T02:30:00Z,28.2000,-89.1200,28.1,11111222 
ADCP,ioos:station:wmo:42365:1,2013-06-19T03:30:00Z,28.2000,-89.1200,28.1,11111222 
ADCP,ioos:station:wmo:42365:1,2013-06-19T04:30:00Z,28.2000,-89.1200,28.1,11111222 
ADCP,ioos:station:wmo:42365:1,2013-06-19T05:30:00Z,28.2000,-89.1200,28.0,11111222 
ADCP,ioos:station:wmo:42365:1,2013-06-19T06:30:00Z,28.2000,-89.1200,27.9,11111222 
ADCP,ioos:station:wmo:42365:1,2013-06-19T07:30:00Z,28.2000,-89.1200,27.8,11111222 
ADCP,ioos:station:wmo:42365:1,2013-06-19T08:30:00Z,28.2000,-89.1200,27.8,11111222 
ADCP,ioos:station:wmo:42365:1,2013-06-19T10:30:00Z,28.2000,-89.1200,27.7,11111222 
ADCP,ioos:station:wmo:42365:1,2013-06-19T11:30:00Z,28.2000,-89.1200,27.8,11111222 
ADCP,ioos:station:wmo:42365:1,2013-06-19T12:30:00Z,28.2000,-89.1200,28.2,11111222 
ADCP,ioos:station:wmo:42365:1,2013-06-19T13:30:00Z,28.2000,-89.1200,28.8,11111222 
ADCP,ioos:station:wmo:42365:1,2013-06-19T14:30:00Z,28.2000,-89.1200,28.3,11111222 
ADCP,ioos:station:wmo:42365:1,2013-06-19T15:30:00Z,28.2000,-89.1200,29.9,11111222 
ADCP,ioos:station:wmo:42365:1,2013-06-19T16:30:00Z,28.2000,-89.1200,29.3,11111222 
ADCP,ioos:station:wmo:42365:1,2013-06-19T17:30:00Z,28.2000,-89.1200,30.1,11111222 
ADCP,ioos:station:wmo:42365:1,2013-06-19T18:30:00Z,28.2000,-89.1200,31.6,11111222 
ADCP,ioos:station:wmo:42365:1,2013-06-19T19:30:00Z,28.2000,-89.1200,27.4,11111222 
ADCP,ioos:station:wmo:42365:1,2013-06-19T20:30:00Z,28.2000,-89.1200,30.6,11111222 
ADCP,ioos:station:wmo:42365:1,2013-06-19T21:30:00Z,28.2000,-89.1200,31.0,11111222 
ADCP,ioos:station:wmo:42365:1,2013-06-19T22:30:00Z,28.2000,-89.1200,30.4,11111222 
ADCP,ioos:station:wmo:42365:1,2013-06-19T23:30:00Z,28.2000,-89.1200,30.2,11111222 
ADCP,ioos:station:wmo:42365:1,2013-06-20T00:30:00Z,28.2000,-89.1200,29.7,11111222 
ADCP,ioos:station:wmo:42365:1,2013-06-20T01:30:00Z,28.2000,-89.1200,29.1,11111222 
ADCP,ioos:station:wmo:42365:1,2013-06-20T02:30:00Z,28.2000,-89.1200,28.9,11111222 
ADCP,ioos:station:wmo:42365:1,2013-06-20T03:30:00Z,28.2000,-89.1200,28.7,11111222 
ADCP,ioos:station:wmo:42365:1,2013-06-20T04:30:00Z,28.2000,-89.1200,28.4,11111222 